RYR946 EPKK-LOWW

Flight info

Callsign RYR946
Flight time 0h 41m
Altitude 24000
Route BABKO DCT VADEX DCT BABNI DCT TUTPI P182 REKLU REKLU3W
Aircraft A320/M-SDE3FGHIRWY/LB1

Departure

Time 2026-05-08 08:58
Airport Kraków John Paul II International Airport (EPKK)

Arrival

Time 2026-05-08 09:40
Airport Vienna International Airport (LOWW)
Time Latitude Longitude Altitude Speed Heading
2026-05-08 08:29 50.07489 19.80214 789 ft 0 kts 168°
2026-05-08 08:55 50.07485 19.80215 790 ft 3 kts 168°
2026-05-08 08:55 50.07450 19.80233 790 ft 8 kts 149°
2026-05-08 08:55 50.07444 19.80323 790 ft 10 kts 72°
2026-05-08 08:55 50.07505 19.80396 790 ft 12 kts 17°
2026-05-08 08:56 50.07594 19.80412 790 ft 14 kts 355°
2026-05-08 08:56 50.07692 19.80376 790 ft 15 kts 348°
2026-05-08 08:56 50.07803 19.80345 790 ft 17 kts 350°
2026-05-08 08:56 50.07926 19.80309 790 ft 19 kts 348°
2026-05-08 08:57 50.08007 19.80256 789 ft 10 kts 313°
2026-05-08 08:57 50.08010 19.80172 790 ft 0 kts 257°
2026-05-08 08:57 50.08007 19.80156 790 ft 10 kts 257°
2026-05-08 08:58 50.07933 19.79623 791 ft 88 kts 258°
2026-05-08 08:58 50.07759 19.78362 792 ft 148 kts 258°
2026-05-08 08:58 50.07542 19.76671 1241 ft 159 kts 260°
2026-05-08 08:58 50.07319 19.74996 2083 ft 159 kts 259°
2026-05-08 08:59 50.07067 19.73237 2603 ft 177 kts 259°
2026-05-08 08:59 50.06788 19.71283 2946 ft 198 kts 259°
2026-05-08 08:59 50.06474 19.69059 3274 ft 223 kts 259°
2026-05-08 08:59 50.06105 19.66624 3865 ft 237 kts 252°
2026-05-08 09:00 50.05139 19.64540 4660 ft 246 kts 215°
2026-05-08 09:00 50.03465 19.63677 5223 ft 267 kts 181°
2026-05-08 09:00 50.01603 19.64057 6080 ft 274 kts 166°
2026-05-08 09:00 49.99763 19.64896 6988 ft 278 kts 162°
2026-05-08 09:01 49.97914 19.65837 7865 ft 281 kts 163°
2026-05-08 09:01 49.96033 19.66740 8744 ft 284 kts 165°
2026-05-08 09:01 49.94120 19.67566 9618 ft 287 kts 167°
2026-05-08 09:01 49.92167 19.68327 10383 ft 294 kts 168°
2026-05-08 09:02 49.90083 19.68961 10661 ft 316 kts 176°
2026-05-08 09:02 49.87827 19.68846 11023 ft 332 kts 191°
2026-05-08 09:02 49.85607 19.67834 11725 ft 336 kts 205°
2026-05-08 09:02 49.83537 19.66131 12478 ft 339 kts 211°
2026-05-08 09:03 49.81469 19.64339 13235 ft 342 kts 211°
2026-05-08 09:03 49.79377 19.62534 13985 ft 346 kts 211°
2026-05-08 09:03 49.77263 19.60716 14629 ft 350 kts 211°
2026-05-08 09:03 49.75122 19.58881 15281 ft 353 kts 211°
2026-05-08 09:04 49.72961 19.57030 15938 ft 357 kts 211°
2026-05-08 09:04 49.70785 19.55168 16590 ft 360 kts 211°
2026-05-08 09:04 49.68582 19.53285 17214 ft 363 kts 211°
2026-05-08 09:04 49.66358 19.51384 17853 ft 367 kts 212°
2026-05-08 09:05 49.64144 19.49490 18458 ft 370 kts 212°
2026-05-08 09:05 49.61920 19.47481 19001 ft 371 kts 218°
2026-05-08 09:05 49.59937 19.44942 19546 ft 371 kts 228°
2026-05-08 09:05 49.58172 19.42035 20153 ft 372 kts 230°
2026-05-08 09:06 49.56399 19.39117 20750 ft 375 kts 229°
2026-05-08 09:06 49.54605 19.36182 21334 ft 377 kts 229°
2026-05-08 09:06 49.52796 19.33233 21912 ft 380 kts 229°
2026-05-08 09:06 49.50977 19.30276 22464 ft 382 kts 229°
2026-05-08 09:07 49.49139 19.27298 23020 ft 385 kts 229°
2026-05-08 09:07 49.47291 19.24302 23556 ft 387 kts 229°
2026-05-08 09:07 49.45432 19.21287 23955 ft 389 kts 229°
2026-05-08 09:07 49.43571 19.18273 24072 ft 388 kts 229°
2026-05-08 09:08 49.41723 19.15284 24095 ft 384 kts 229°
2026-05-08 09:08 49.39887 19.12315 24095 ft 383 kts 229°
2026-05-08 09:08 49.38060 19.09358 24095 ft 382 kts 229°
2026-05-08 09:08 49.36230 19.06397 24090 ft 382 kts 229°
2026-05-08 09:09 49.34400 19.03440 24087 ft 382 kts 229°
2026-05-08 09:09 49.32567 19.00486 24093 ft 382 kts 229°
2026-05-08 09:09 49.30732 18.97539 24093 ft 383 kts 229°
2026-05-08 09:09 49.28890 18.94586 24080 ft 383 kts 228°
2026-05-08 09:10 49.27046 18.91629 24081 ft 384 kts 228°
2026-05-08 09:10 49.25227 18.88638 24080 ft 383 kts 232°
2026-05-08 09:10 49.23669 18.85355 24081 ft 382 kts 237°
2026-05-08 09:10 49.22169 18.82004 24075 ft 382 kts 237°
2026-05-08 09:11 49.20668 18.78655 24070 ft 381 kts 237°
2026-05-08 09:11 49.19165 18.75311 24069 ft 381 kts 237°
2026-05-08 09:11 49.17664 18.71974 24068 ft 382 kts 237°
2026-05-08 09:11 49.16181 18.68676 24062 ft 381 kts 237°
2026-05-08 09:12 49.14657 18.65290 24059 ft 381 kts 237°
2026-05-08 09:12 49.13172 18.61996 24058 ft 381 kts 237°
2026-05-08 09:12 49.11667 18.58669 24052 ft 381 kts 237°
2026-05-08 09:12 49.10157 18.55336 24054 ft 382 kts 237°
2026-05-08 09:13 49.08645 18.52006 24052 ft 381 kts 237°
2026-05-08 09:13 49.07131 18.48680 24055 ft 382 kts 237°
2026-05-08 09:13 49.05616 18.45354 24054 ft 382 kts 237°
2026-05-08 09:13 49.04099 18.42029 24057 ft 382 kts 237°
2026-05-08 09:14 49.02586 18.38712 24052 ft 382 kts 237°
2026-05-08 09:14 49.01069 18.35390 24053 ft 382 kts 237°
2026-05-08 09:14 48.99551 18.32071 24064 ft 382 kts 237°
2026-05-08 09:14 48.98036 18.28760 24055 ft 382 kts 237°
2026-05-08 09:15 48.96572 18.25388 24048 ft 381 kts 242°
2026-05-08 09:15 48.95447 18.21745 24045 ft 380 kts 248°
2026-05-08 09:15 48.94409 18.18049 24066 ft 379 kts 248°
2026-05-08 09:15 48.93371 18.14370 24071 ft 379 kts 248°
2026-05-08 09:16 48.92680 18.11929 24069 ft 379 kts 248°
2026-05-08 09:16 48.91643 18.08258 24065 ft 378 kts 248°
2026-05-08 09:16 48.90603 18.04585 24069 ft 378 kts 248°
2026-05-08 09:16 48.89559 18.00918 24074 ft 378 kts 248°
2026-05-08 09:17 48.88513 17.97256 24070 ft 377 kts 248°
2026-05-08 09:17 48.87469 17.93605 24077 ft 377 kts 248°
2026-05-08 09:17 48.86422 17.89949 24073 ft 377 kts 248°
2026-05-08 09:17 48.85373 17.86295 24078 ft 377 kts 248°
2026-05-08 09:18 48.84326 17.82652 24075 ft 377 kts 248°
2026-05-08 09:18 48.83278 17.79001 24069 ft 377 kts 248°
2026-05-08 09:18 48.82232 17.75351 24064 ft 377 kts 248°
2026-05-08 09:18 48.81184 17.71703 24062 ft 377 kts 248°
2026-05-08 09:19 48.80136 17.68070 24057 ft 376 kts 248°
2026-05-08 09:19 48.79085 17.64434 24058 ft 376 kts 248°
2026-05-08 09:19 48.78037 17.60806 23988 ft 373 kts 248°
2026-05-08 09:19 48.77007 17.57241 23755 ft 365 kts 248°
2026-05-08 09:20 48.75993 17.53735 23488 ft 362 kts 248°
2026-05-08 09:20 48.74982 17.50254 23204 ft 360 kts 248°
2026-05-08 09:20 48.73972 17.46788 22933 ft 359 kts 248°
2026-05-08 09:20 48.72967 17.43337 22658 ft 357 kts 249°
2026-05-08 09:21 48.72183 17.39839 22393 ft 354 kts 257°
2026-05-08 09:21 48.71764 17.36175 22122 ft 352 kts 265°
2026-05-08 09:22 48.68169 17.15410 20562 ft 349 kts 238°
2026-05-08 09:23 48.66834 17.12348 20311 ft 348 kts 238°
2026-05-08 09:23 48.65511 17.09299 20077 ft 347 kts 238°
2026-05-08 09:23 48.64187 17.06246 19824 ft 346 kts 238°
2026-05-08 09:23 48.62874 17.03224 19548 ft 342 kts 238°
2026-05-08 09:24 48.61554 17.00192 19100 ft 340 kts 238°
2026-05-08 09:24 48.60275 16.97255 18640 ft 338 kts 239°
2026-05-08 09:24 48.59215 16.94111 18141 ft 336 kts 250°
2026-05-08 09:24 48.58630 16.90723 17837 ft 333 kts 262°
2026-05-08 09:25 48.58422 16.87234 17611 ft 333 kts 265°
2026-05-08 09:25 48.58243 16.83744 17368 ft 333 kts 265°
2026-05-08 09:25 48.58056 16.80217 17115 ft 332 kts 265°
2026-05-08 09:25 48.57873 16.76802 16871 ft 331 kts 265°
2026-05-08 09:26 48.57603 16.73358 16621 ft 330 kts 258°
2026-05-08 09:26 48.56843 16.70097 16371 ft 330 kts 244°
2026-05-08 09:26 48.55565 16.67210 16135 ft 331 kts 230°
2026-05-08 09:26 48.53851 16.64873 15876 ft 334 kts 219°
2026-05-08 09:27 48.51996 16.62778 15617 ft 334 kts 219°
2026-05-08 09:27 48.50140 16.60677 15363 ft 333 kts 219°
2026-05-08 09:27 48.48179 16.58831 15108 ft 335 kts 207°
2026-05-08 09:27 48.45954 16.57780 14852 ft 337 kts 192°
2026-05-08 09:28 48.43603 16.57643 14597 ft 340 kts 176°
2026-05-08 09:28 48.41282 16.58396 14359 ft 342 kts 166°
2026-05-08 09:28 48.38998 16.59370 14073 ft 339 kts 167°
2026-05-08 09:28 48.36737 16.60328 13611 ft 338 kts 167°
2026-05-08 09:29 48.34478 16.61280 13150 ft 336 kts 167°
2026-05-08 09:29 48.32230 16.62227 12704 ft 334 kts 167°
2026-05-08 09:29 48.29994 16.63170 12249 ft 333 kts 167°
2026-05-08 09:29 48.27770 16.64105 11795 ft 331 kts 167°
2026-05-08 09:30 48.25573 16.65028 11354 ft 329 kts 167°
2026-05-08 09:30 48.23373 16.65950 10913 ft 327 kts 167°
2026-05-08 09:30 48.21184 16.66868 10476 ft 326 kts 167°
2026-05-08 09:30 48.19060 16.67760 10317 ft 315 kts 167°
2026-05-08 09:31 48.16963 16.68641 10199 ft 304 kts 167°
2026-05-08 09:31 48.14978 16.69476 9971 ft 297 kts 167°
2026-05-08 09:31 48.12990 16.70309 9599 ft 297 kts 167°
2026-05-08 09:31 48.11000 16.71140 9187 ft 296 kts 167°
2026-05-08 09:32 48.09026 16.71959 8797 ft 294 kts 167°
2026-05-08 09:32 48.07056 16.72776 8409 ft 293 kts 167°
2026-05-08 09:32 48.05105 16.73586 8051 ft 290 kts 166°
2026-05-08 09:32 48.03164 16.74391 7634 ft 289 kts 166°
2026-05-08 09:33 48.01233 16.75189 7245 ft 287 kts 166°
2026-05-08 09:33 47.99319 16.75984 6855 ft 285 kts 166°
2026-05-08 09:33 47.97411 16.76778 6478 ft 284 kts 166°
2026-05-08 09:33 47.95514 16.77564 6087 ft 282 kts 166°
2026-05-08 09:34 47.93606 16.78117 5531 ft 282 kts 184°
2026-05-08 09:34 47.91794 16.77337 5070 ft 262 kts 214°
2026-05-08 09:34 47.90549 16.75590 4822 ft 234 kts 239°
2026-05-08 09:34 47.89954 16.73471 4576 ft 214 kts 261°
2026-05-08 09:35 47.89890 16.71370 4444 ft 196 kts 279°
2026-05-08 09:35 47.90233 16.69486 4376 ft 183 kts 295°
2026-05-08 09:35 47.90893 16.67889 4215 ft 180 kts 310°
2026-05-08 09:35 47.91816 16.66644 4034 ft 180 kts 326°
2026-05-08 09:36 47.92945 16.65836 3827 ft 182 kts 342°
2026-05-08 09:36 47.94146 16.65330 3599 ft 181 kts 343°
2026-05-08 09:36 47.95368 16.64818 3360 ft 180 kts 344°
2026-05-08 09:36 47.96573 16.64312 3121 ft 179 kts 343°
2026-05-08 09:37 47.97751 16.63817 2883 ft 177 kts 344°
2026-05-08 09:37 47.98937 16.63318 2647 ft 177 kts 344°
2026-05-08 09:37 48.00095 16.62831 2414 ft 162 kts 344°
2026-05-08 09:37 48.01102 16.62407 2212 ft 145 kts 345°
2026-05-08 09:38 48.02049 16.62008 2019 ft 139 kts 345°
2026-05-08 09:38 48.02958 16.61624 1818 ft 134 kts 345°
2026-05-08 09:38 48.03859 16.61246 1638 ft 135 kts 344°
2026-05-08 09:38 48.04755 16.60868 1472 ft 133 kts 344°
2026-05-08 09:39 48.05645 16.60492 1290 ft 133 kts 343°
2026-05-08 09:39 48.06537 16.60117 1102 ft 133 kts 343°
2026-05-08 09:39 48.07419 16.59745 933 ft 132 kts 343°
2026-05-08 09:39 48.08304 16.59373 742 ft 132 kts 342°
2026-05-08 09:40 48.09184 16.59003 623 ft 128 kts 343°
2026-05-08 09:40 48.09909 16.58692 619 ft 85 kts 345°
2026-05-08 09:40 48.10294 16.58532 621 ft 28 kts 343°
2026-05-08 09:40 48.10421 16.58361 612 ft 23 kts 299°
2026-05-08 09:41 48.10514 16.58167 616 ft 23 kts 328°
2026-05-08 09:41 48.10655 16.58096 613 ft 20 kts 343°
2026-05-08 09:41 48.10796 16.58036 619 ft 22 kts 344°
2026-05-08 09:41 48.10944 16.57972 619 ft 23 kts 344°
2026-05-08 09:42 48.11090 16.57888 610 ft 22 kts 320°
2026-05-08 09:42 48.11167 16.57689 616 ft 23 kts 296°
2026-05-08 09:42 48.11239 16.57472 615 ft 24 kts 295°
2026-05-08 09:42 48.11311 16.57248 610 ft 24 kts 295°
2026-05-08 09:43 48.11385 16.57018 610 ft 25 kts 296°
2026-05-08 09:43 48.11459 16.56789 614 ft 25 kts 296°
2026-05-08 09:43 48.11536 16.56553 623 ft 25 kts 296°
2026-05-08 09:43 48.11615 16.56315 613 ft 26 kts 296°
2026-05-08 09:44 48.11689 16.56088 618 ft 23 kts 296°
2026-05-08 09:44 48.11759 16.55873 611 ft 23 kts 296°
2026-05-08 09:44 48.11826 16.55661 615 ft 22 kts 296°
2026-05-08 09:44 48.11881 16.55486 613 ft 15 kts 297°
2026-05-08 09:45 48.11974 16.55480 615 ft 16 kts 25°
2026-05-08 09:45 48.12073 16.55551 616 ft 12 kts 25°
2026-05-08 09:45 48.12130 16.55594 616 ft 7 kts 39°
2026-05-08 09:45 48.12131 16.55655 619 ft 5 kts 111°
2026-05-08 09:46 48.12124 16.55678 618 ft 2 kts 114°
2026-05-08 09:46 48.12121 16.55690 610 ft 1 kts 114°